Content
SEND FEEDBACK

Daily
Averages
Monthly
Summary
United States of America

MOUNTAIN HOME, IDAHO


Home > North America > United States > Idaho
Elevation: 913 meters     Latitude: 43 03N     Longitude: 115 52W

WEATHER
 
SELECT A DAY
Number of Records: 180,936;   Date Range: 1/1/95 - 11/24/14
 
SHARE

PRINT THIS DATA

[ ← Previous Day ]
WEATHER ALMANAC - 31 JANUARY, 2013
[ Next Day → ]
[ °F ]   °C
Weather ElementAverageHighLow
Temperature2.5 °C10.6 °C (2:58 pm)-0.9 °C (11:58 pm)
Dewpoint1.4 °C7.7 °C (1:58 pm)-2 °C (10:23 pm)
Humidity93.4 %100 % (12:58 am)58 % (2:58 pm)
Barometer1026.8 hPa1029.1 hPa (7:58 am)1024 hPa (10:43 pm)
Wind Speed8.2 km/h20.4 km/h (1:58 am)
Weather ElementAverage
Visibility16.1 km
Wind DirectionWSW (231.9 °)

Weather ElementTotal
Precipitation---
Heating Degree Days13.5 (Base 18.3)
Averaged from 43 records on 31 January, 2013
WEATHER CONDITIONS BREAKOUT
WIND DIRECTION BREAKOUT
WEATHER BY HOUR - 31 JANUARY, 2013
[ °F ]   °C
Local TimeTemperatureDewpointHumidityBarometerVisibilityWind DirectionWind SpeedGust SpeedPrecipitationEventsConditions
12:58 AM0.5 °C0.5 °C100 %1027.8 hPa16.1 kmNW (310°)14.8 km/hClear
1:58 AM2.4 °C2.4 °C100 %1027.4 hPa16.1 kmNNW (340°)20.4 km/hMostly Cloudy
2:13 AM2 °C2 °C100 %1026.1 hPa16.1 kmNNW (330°)16.7 km/hScattered Clouds
2:33 AM1 °C1 °C100 %1026.4 hPa16.1 kmNW (320°)11.1 km/hMostly Cloudy
2:58 AM0.8 °C0.8 °C100 %1028.1 hPa16.1 kmNW (320°)9.3 km/hOvercast
3:18 AM2 °C2 °C100 %1026.8 hPa16.1 kmWNW (300°)14.8 km/hOvercast
3:53 AM2 °C2 °C100 %1026.8 hPa16.1 kmNW (310°)13 km/hMostly Cloudy
3:58 AM1.7 °C1.7 °C100 %1028.4 hPa16.1 kmWest (280°)9.3 km/hMostly Cloudy
4:28 AM2 °C2 °C100 %1026.4 hPa16.1 kmWest (280°)7.4 km/hOvercast
4:58 AM2 °C2 °C100 %1028.1 hPa16.1 kmNW (310°)9.3 km/hMostly Cloudy
5:03 AM2 °C2 °C100 %1026.4 hPa16.1 kmNW (310°)9.3 km/hOvercast
5:33 AM1 °C1 °C100 %1026.4 hPa16.1 kmNW (320°)9.3 km/hOvercast
5:58 AM0.9 °C0.9 °C100 %1028.4 hPa16.1 kmWest (270°)11.1 km/hOvercast
6:28 AM0 °C0 °C100 %1026.4 hPa16.1 kmWNW (300°)7.4 km/hMostly Cloudy
6:33 AM0 °C0 °C100 %1026.4 hPa16.1 kmWNW (290°)9.3 km/hScattered Clouds
6:58 AM0 °C-0.1 °C99 %1028.8 hPa16.1 kmWest (270°)7.4 km/hPartly Cloudy
7:08 AM0 °C0 °C100 %1026.8 hPa16.1 kmNW (310°)1.9 km/hMostly Cloudy
7:58 AM1 °C1 °C100 %1029.1 hPa16.1 kmWNW (300°)3.7 km/hOvercast
8:08 AM0 °C0 °C100 %1027.1 hPa16.1 kmWest (280°)5.6 km/hOvercast
8:28 AM0 °C0 °C100 %1027.1 hPa16.1 kmWest (280°)1.9 km/hOvercast
8:58 AM0.7 °C0.7 °C100 %1029.1 hPa16.1 kmWNW (290°)3.7 km/hOvercast
9:58 AM3.6 °C3.6 °C100 %1029.1 hPa16.1 kmSW (220°)3.7 km/hOvercast
10:58 AM5.4 °C5.4 °C100 %1029.1 hPa16.1 kmCalmOvercast
11:28 AM6 °C6 °C100 %1027.4 hPa16.1 kmNorth (10°)5.6 km/hOvercast
11:58 AM6.9 °C6.9 °C100 %1028.8 hPa16.1 kmNorth (10°)13 km/hOvercast
12:08 PM7 °C7 °C100 %1027.1 hPa16.1 kmVariable11.1 km/hOvercast
12:58 PM7.8 °C7.5 °C98 %1028.1 hPa16.1 kmNW (320°)13 km/hMostly Cloudy
1:58 PM7.7 °C7.7 °C100 %1026.8 hPa16.1 kmNNW (330°)7.4 km/hOvercast
2:58 PM10.6 °C2.7 °C58 %1026.4 hPa16.1 kmNNW (340°)14.8 km/hMostly Cloudy
3:58 PM8.9 °C1.9 °C62 %1026.1 hPa16.1 kmNorth (350°)13 km/hMostly Cloudy
4:58 PM8.1 °C1.5 °C63 %1026.1 hPa16.1 kmNNW (340°)14.8 km/hMostly Cloudy
5:58 PM6.6 °C1 °C68 %1026.1 hPa16.1 kmNW (320°)11.1 km/hScattered Clouds
6:58 PM3.6 °C0.3 °C79 %1026.4 hPa16.1 kmNorth (350°)3.7 km/hScattered Clouds
7:58 PM2.4 °C-0.5 °C81 %1026.8 hPa16.1 kmNNW (340°)3.7 km/hMostly Cloudy
8:58 PM1.1 °C-1 °C86 %1026.8 hPa16.1 kmNorth (10°)1.9 km/hScattered Clouds
9:13 PM0 °C-1 °C93 %1024.7 hPa16.1 kmNorth (10°)3.7 km/hMostly Cloudy
9:58 PM1 °C-1 °C87 %1026.4 hPa16.1 kmNorth (10°)1.9 km/hOvercast
10:03 PM0 °C-1 °C93 %1024.4 hPa16.1 kmSouth (180°)9.3 km/hOvercast
10:23 PM0 °C-2 °C87 %1024.4 hPa16.1 kmNNE (30°)1.9 km/hOvercast
10:43 PM0 °C-2 °C87 %1024 hPa16.1 kmSSE (160°)5.6 km/hMostly Cloudy
10:58 PM-0.7 °C-2 °C91 %1025.7 hPa16.1 kmSE (140°)5.6 km/hMostly Cloudy
11:03 PM0 °C-1 °C93 %1024 hPa16.1 kmSSE (160°)3.7 km/hScattered Clouds
11:58 PM-0.9 °C-2 °C92 %1026.1 hPa16.1 kmNNE (20°)5.6 km/h0 mmLight Drizzle
Hourly data recorded from KMUO, located 0 kilometers away from Mountain Home, Idaho







STORIES FROM OUR PARTNERS